Location: 22
(39.7117°N, 89.5929°W)
Time: 09:42:20
(UTC-05:00)

S-56A Canister/Altair - Pass Details

Date: 10 February 2023
Orbit: 638 x 2493 km, 38.9° (Epoch: 25 March)

Event Time Altitude Azimuth Distance (km) Brightness Sun altitude
Rises 11:55:14 0° 276° (W) 2,931 10.4 35.9°
Reaches altitude 10° 11:57:24 10° 274° (W) 2,046 9.7 35.9°
Maximum altitude 12:01:55 70° 191° (S) 764 8.6 36.0°
Drops below altitude 10° 12:07:36 10° 108° (ESE) 2,560 10.5 36.0°
Sets 12:10:37 0° 107° (ESE) 3,745 11.3 36.0°
